Location: *
(50.5492°N, 7.7469°E)
Time: 03:20:56
(UTC+00:00)

Cosmos 1953 Rocket - Pass Details

Date: 21 October 2019
Orbit: 603 x 636 km, 82.5° (Epoch: 17 November)

Event Time Altitude Azimuth Distance (km) Brightness Sun altitude
Rises 16:55:45 0° 349° (NNW) 2,898 7.0 -5.5°
Reaches altitude 10° 16:57:59 10° 348° (NNW) 1,983 6.2 -5.8°
Maximum altitude 17:02:23 83° 261° (W) 621 3.7 -6.5°
Drops below altitude 10° 17:06:42 10° 174° (S) 1,951 6.2 -7.2°
Sets 17:08:53 0° 174° (S) 2,847 7.0 -7.5°
